Hourly Data Report for September 11, 2018

SHEARWATER RCS
NOVA SCOTIA
Current Station Operator: ECCC - MSC

44°37'47.000" N
63°30'48.000" W
24.00 m
8205092
71264
AAW

Download Data

Hourly Data (September 2018)
Hourly Data Report for September 11, 2018
TIME Temp Definition
°C
Dew Point Definition
°C
Rel Hum Definition
%
Wind Dir Definition
10's deg

Wind Spd Definition
km/h
Visibility Definition
km
Stn Press Definition
kPa
Hmdx Definition


Wind Chill Definition


Weather Definition


00:00 12.9 8.7 76 5 8   102.89     LegendNANA
01:00 14.4 8.9 69 10 5   102.93     LegendNANA
02:00 16.1 8.7 62 15 16   102.89     LegendNANA
03:00 15.7 8.8 63 12 11   102.86     LegendNANA
04:00 16.0 9.6 66 12 9   102.82     LegendNANA
05:00 16.1 9.7 66 11 9   102.78     LegendNANA
06:00 16.8 10.7 67 12 11   102.73     LegendNANA
07:00 17.4 11.4 68 13 14   102.73     LegendNANA
08:00 17.8 13.0 74 13 16   102.71     LegendNANA
09:00 18.6 13.3 71 13 18   102.68     LegendNANA
10:00 19.0 13.9 73 14 17   102.68     LegendNANA
11:00 19.5 14.0 71 14 19   102.63     LegendNANA
12:00 19.7 14.9 74 14 14   102.60     LegendNANA
13:00 20.4 15.4 73 13 16   102.55 25   LegendNANA
14:00 20.8 15.8 73 13 15   102.47 25   LegendNANA
15:00 20.3 16.2 77 15 17   102.40 25   LegendNANA
16:00 20.0 16.4 80 15 19   102.35 25   LegendNANA
17:00 19.8 16.8 83 15 19   102.26     LegendNANA
18:00 20.1 17.0 83 14 16   102.19 25   LegendNANA
19:00 20.1 17.2 84 16 16   102.17 26   LegendNANA
20:00 20.0 17.8 88 16 17   102.15 26   LegendNANA
21:00 20.0 18.1 89 16 16   102.10 26   LegendNANA
22:00 19.9 18.3 91 17 14   102.08     LegendNANA
23:00 19.7 18.5 93 17 22   101.97     LegendNANA

Notes on Data Quality.

Legend

  • E = Estimated
  • M = Missing
  • NA = Not Available*
  • [empty] = Indicates an unobserved value
Date modified: